This is the latest recevied weather packets stored in our database for station/object DH0DM-13. If no packets are shown the sender has not sent any weather packets the latest 10 day(s).
| Time | Temp. | Humidity | Pressure | Rain* | Wind** | Luminosity | Snow |
|---|---|---|---|---|---|---|---|
| 1777791522 | 19.44° C | 40% | 989 hPa | 0 mm | 0.45 m/s, 254° | - | - |
| 1777790921 | 19.44° C | 39% | 988.8 hPa | 0 mm | 3.58 m/s, 204° | - | - |
| 1777790320 | 18.33° C | 40% | 989 hPa | 0 mm | 3.58 m/s, 184° | - | - |
| 1777789719 | 18.33° C | 40% | 988.8 hPa | 0 mm | 3.58 m/s, 188° | - | - |
| 1777789118 | 18.33° C | 41% | 988.7 hPa | 0 mm | 0.89 m/s, 204° | - | - |
| 1777788517 | 18.33° C | 41% | 988.8 hPa | 0 mm | 2.68 m/s, 212° | - | - |
| 1777787916 | 17.78° C | 41% | 989 hPa | 0 mm | 5.36 m/s, 226° | - | - |
| 1777787316 | 17.22° C | 42% | 988.7 hPa | 0 mm | 2.68 m/s, 111° | - | - |
| 1777786715 | 16.67° C | 42% | 988.8 hPa | 0 mm | 9.83 m/s, 150° | - | - |
| 1777786114 | 16.11° C | 43% | 988.6 hPa | 0 mm | 4.92 m/s, 164° | - | - |
| 1777785513 | 16.11° C | 43% | 988.7 hPa | 0 mm | 8.49 m/s, 74° | - | - |
| 1777784912 | 16.11° C | 44% | 988.7 hPa | 0 mm | 0.89 m/s, 169° | - | - |
| 1777784311 | 15.56° C | 43% | 988.5 hPa | 0 mm | 5.36 m/s, 20° | - | - |
| 1777783710 | 15.56° C | 43% | 988.7 hPa | 0 mm | 0.89 m/s, 160° | - | - |
| 1777783109 | 15.56° C | 43% | 988.5 hPa | 0 mm | 3.58 m/s, 164° | - | - |
| 1777782509 | 15.56° C | 43% | 988.6 hPa | 0 mm | 4.47 m/s, 132° | - | - |
| 1777781908 | 15.56° C | 43% | 988.7 hPa | 0 mm | 2.68 m/s, 97° | - | - |
| 1777781307 | 15° C | 43% | 988.6 hPa | 0 mm | 0.89 m/s, 144° | - | - |
| 1777780706 | 15° C | 43% | 988.8 hPa | 0 mm | 5.36 m/s, 98° | - | - |
| 1777780105 | 15° C | 43% | 988.7 hPa | 0 mm | 8.49 m/s, 186° | - | - |
| 1777779504 | 15.56° C | 42% | 988.7 hPa | 0 mm | 6.71 m/s, 201° | - | - |
| 1777778904 | 15.56° C | 41% | 988.6 hPa | 0 mm | 7.6 m/s, 220° | - | - |
| 1777778303 | 15.56° C | 41% | 988.7 hPa | 0 mm | 5.81 m/s, 175° | - | - |
| 1777777702 | 16.11° C | 40% | 988.8 hPa | 0 mm | 6.71 m/s, 144° | - | - |
| 1777777101 | 16.11° C | 41% | 988.7 hPa | 0 mm | 0.45 m/s, 2° | - | - |
* Rain since midnight (hover to see other rain measurements)
** Current wind speed in m/s (hover to see current wind gust speed)